Location: Asheville, NC
(35.6000°N, 82.5500°W)
Time: 03:27:13
(UTC-04:00)

Vanguard 1 Rocket - Pass Details

Date: 13 March 2018
Orbit: 653 x 4224 km, 34.3° (Epoch: 19 June)

Event Time Altitude Azimuth Distance (km) Brightness Sun altitude
Rises 16:27:54 0° 182° (S) 3,179 10.6 35.1°
Reaches altitude 10° 16:32:16 10° 144° (SE) 2,653 9.9 34.4°
Maximum altitude 16:33:51 11° 129° (SE) 2,756 9.8 34.1°
Drops below altitude 10° 16:35:37 10° 115° (ESE) 3,034 9.9 33.8°
Sets 16:42:17 0° 83° (E) 4,872 10.7 32.7°
